Lexington Weather

Lexington, Massachusetts, USA

78°F
7/25/2024 12:31pm 
  • Lexington Conditions: Mostly cloudy
  • Temperature: 78.1°F / 25.6°CWarmer 1.5°F than last hour.
  • Dew Point: 72.5°FIncreased 0.4°Fsince last hour.
  • Relative Humidity: 83%Decreased 3.0% since last hour.
  • Wind: Wind from SSW SSW 1 mph, 10-min avg: 3 mph, gust: 9 mph
  • Barometer: 29.94 in Steady
  • Visibility: 10 miles
  • Rain Today: 0.00 in
  •   

Regional Weather Roundup
for Boston, MA

        
000
ASUS41 KBOX 200210
RWRBOX

REGIONAL WEATHER ROUNDUP
NATIONAL WEATHER SERVICE BOSTON/NORTON MA
1000 PM EDT FRI JUL 19 2024

NOTE:  "FAIR" INDICATES FEW OR NO CLOUDS BELOW 12,000 FEET WITH NO 
SIGNIFICANT WEATHER AND/OR OBSTRUCTIONS TO VISIBILITY.

MAZALL-200300-
EASTERN MASSACHUSETTS
  
CITY           SKY/WX    TMP DP  RH WIND       PRES   REMARKS
BOSTON         PTCLDY    71  60  68 S8        30.10R                  
BEVERLY        CLEAR     70  58  65 S7        30.08S                  
LAWRENCE       CLEAR     72  58  61 CALM      30.10S                  
BEDFORD        CLEAR     71  59  65 S9        30.08R                  
NORWOOD        CLEAR     70  63  78 CALM      30.10R                  
MARSHFIELD     CLEAR     68  63  83 SW3       30.10S                  
PLYMOUTH       CLEAR     71  63  75 S3        30.11R                  
TAUNTON        CLEAR     68  62  81 SE3       30.10R                  
NEW BEDFORD    CLEAR     69  64  84 CALM      30.10S                  
$$

MAZALL-200300-
CAPE COD AND THE ISLANDS
  
CITY           SKY/WX    TMP DP  RH WIND       PRES   REMARKS
FALMOUTH       CLEAR     68  64  88 S6        30.14R                  
HYANNIS        CLEAR     69  62  78 SW3       30.10S                  
CHATHAM        CLEAR     72  65  78 SW6       30.12S                  
PROVINCETOWN   CLEAR     69  66  90 S7        30.11S                  
NANTUCKET      CLEAR     65  64  97 S6        30.13R                  
MARTHAS VNYRD  CLEAR     66  63  90 S5        30.12S                  
$$
 
MAZALL-200300-
CENTRAL AND WESTERN MASSACHUSETTS
  
CITY           SKY/WX    TMP DP  RH WIND       PRES   REMARKS
WORCESTER      CLEAR     70  57  63 W7        30.13S                  
FITCHBURG      CLEAR     68  62  81 NW3       30.11R                  
ORANGE           N/A     67  62  84 CALM      30.12R                  
SPRINGFIELD    PTCLDY    67  62  83 CALM      30.08R                  
WESTFIELD      PTCLDY    66  63  90 CALM      30.11R                  
NORTH ADAMS    CLEAR     62  59  90 CALM      30.13R                  
PITTSFIELD     CLEAR     61  56  83 CALM      30.14R                  
$$
 
RIZALL-200300-
RHODE ISLAND
  
CITY           SKY/WX    TMP DP  RH WIND       PRES   REMARKS
PROVIDENCE     PTCLDY    70  62  76 SW7       30.11R                  
NEWPORT        CLEAR     70  62  76 SW5       30.11R                  
BLOCK ISLAND   CLEAR     70  62  76 SW10        N/A                   
SMITHFIELD     CLEAR     64  64 100 SW3       30.12R                  
WESTERLY       CLEAR     70  63  78 SW3       30.12R                  
$$
 
CTZALL-200300-
CONNECTICUT
  
CITY           SKY/WX    TMP DP  RH WIND       PRES   REMARKS
BRADLEY INTL   PTCLDY    72  61  68 W3        30.11R                  
HARTFORD       PTCLDY    72  64  76 S3        30.10R                  
PLAINVILLE     CLEAR     70  62  76 CALM      30.11R                  
BRIDGEPORT     CLEAR     73  62  68 CALM      30.11R                  
DANBURY        CLEAR     66  60  81 SW3       30.14R                  
GROTON         CLEAR     70  66  87 SW7       30.11R                  
NEW HAVEN      CLEAR     73  65  75 CALM      30.12R                  
CHESTER        CLEAR     68  64  88 CALM      30.13R                  
MERIDEN        CLEAR     67  60  78 CALM      30.11R                  
WILLIMANTIC    CLEAR     68  63  84 CALM      30.12R                  
OXFORD         CLEAR     65  61  87 CALM      30.15R                  
$$

MEZ002-015-021-024-NHZ003-005-008-011-012-014-VTZ005-008-200300-
NORTHERN NEW ENGLAND
  
CITY           SKY/WX    TMP DP  RH WIND       PRES   REMARKS
PORTLAND ME    PTCLDY    70  53  54 S7        30.08R                  
BANGOR ME      PTCLDY    70  62  76 S6        30.05R                  
CONCORD NH     PTCLDY    67  59  75 CALM      30.09R                  
MANCHESTER NH  PTCLDY    71  58  63 CALM      30.07R                  
NASHUA NH      CLEAR     69  66  90 CALM      30.09R                  
PORTSMOUTH NH  PTCLDY    69  58  68 S6        30.07R                  
JAFFREY NH     PTCLDY    64  60  87 CALM      30.14R                  
KEENE NH       CLEAR     62  57  83 CALM      30.11R                  
BURLINGTON VT  CLOUDY    71  61  70 E3        30.08R                  
MT. WASHINGTON FOG       46  46 100 W21         N/A  VSB 1/16         
$$

NYZ052-076-200300-
EASTERN NEW YORK
  
CITY           SKY/WX    TMP DP  RH WIND       PRES   REMARKS
ALBANY         PTCLDY    70  56  61 CALM      30.11R                  
NEW YORK CITY  PTCLDY    76  58  53 S9        30.11R                  
$$
 
ANZALL-200300-
MARINE OBSERVATIONS
  
STATION/POSITION TIME  TEMP    WIND        PRES    VSBY  WAVE
                       AIR SEA DIR/SP/G                  HT/PER
                 (UTC) (F)     (DEG/KT/KT) (MB)    (MI)  (FT/S)
BOSTON BUOY      0150   66 63  180/  6/  8 1019.1R         1/ 6
BUZZARDS BAY     0100   73     230/ 15/ 16 1019.6R
NANTUCKET SOUND  0150   73 77  210/ 10/ 10 1019.4R         1
MASS BAY-STELLWA 0004   67 64  190/ 10/ 10 1018.3S  1 7/8  2/ 8
ISLE OF SHOALS   0100   68     200/ 16/ 16 1017.8R
S OF BLOCK IS    0156      73                N/A           3/ 8
$$

......................KEY.........................
  SKY/WX - SKY CONDITION/PRESENT WEATHER
  TMP    - TEMPERATURE IN FAHRENHEIT
  DWPT   - DEWPOINT IN FAHRENHEIT
  RH     - RELATIVE HUMIDITY IN PERCENT
  WIND   - DIRECTION AND SPEED IN MPH
  PRES   - MEAN SEA LEVEL PRESSURE IN INCHES OF HG
  WCI    - WIND CHILL INDEX
  VSB    - VISIBILITY IN MILES
  HX     - HEAT INDEX
  TC     - TEMPERATURE IN CELSIUS
  VRB    - VARIABLE WIND DIRECTION
  N/A    - NOT AVAILABLE
  
      

Other recent Regional Weather Roundups

Thu Jul 25, 12:10pm EDT

Thu Jul 25, 11:10am EDT

Thu Jul 25, 10:10am EDT

Thu Jul 25, 9:10am EDT

Thu Jul 25, 8:10am EDT

Thu Jul 25, 7:10am EDT

Thu Jul 25, 6:10am EDT

Thu Jul 25, 5:10am EDT

Thu Jul 25, 4:10am EDT

Thu Jul 25, 3:10am EDT

Thu Jul 25, 2:10am EDT

Thu Jul 25, 1:10am EDT

Thu Jul 25, 12:10am EDT

Wed Jul 24, 11:10pm EDT

Wed Jul 24, 10:10pm EDT

Wed Jul 24, 9:10pm EDT

Wed Jul 24, 8:10pm EDT

Wed Jul 24, 7:10pm EDT

Wed Jul 24, 6:10pm EDT

Wed Jul 24, 5:10pm EDT

Wed Jul 24, 4:10pm EDT

Wed Jul 24, 3:10pm EDT

Wed Jul 24, 2:10pm EDT

Wed Jul 24, 1:10pm EDT

Wed Jul 24, 12:10pm EDT

Wed Jul 24, 11:10am EDT

Wed Jul 24, 10:10am EDT

Wed Jul 24, 9:10am EDT

Wed Jul 24, 8:10am EDT

Wed Jul 24, 7:10am EDT

Wed Jul 24, 6:10am EDT

Wed Jul 24, 5:10am EDT

Wed Jul 24, 4:10am EDT

Wed Jul 24, 3:10am EDT

Wed Jul 24, 2:10am EDT

Wed Jul 24, 1:10am EDT

Wed Jul 24, 12:10am EDT

Tue Jul 23, 11:10pm EDT

Tue Jul 23, 10:10pm EDT

Tue Jul 23, 9:10pm EDT

Tue Jul 23, 8:10pm EDT

Tue Jul 23, 7:10pm EDT

Tue Jul 23, 6:10pm EDT

Tue Jul 23, 5:10pm EDT

Tue Jul 23, 4:10pm EDT

Tue Jul 23, 3:10pm EDT

Tue Jul 23, 2:10pm EDT

Tue Jul 23, 1:10pm EDT

Tue Jul 23, 12:10pm EDT

Tue Jul 23, 11:10am EDT

Tue Jul 23, 10:10am EDT

Tue Jul 23, 10:10am EDT

Tue Jul 23, 9:10am EDT

Tue Jul 23, 8:10am EDT

Tue Jul 23, 7:10am EDT

Tue Jul 23, 6:10am EDT

Tue Jul 23, 5:10am EDT

Tue Jul 23, 4:10am EDT

Tue Jul 23, 3:10am EDT

Tue Jul 23, 2:10am EDT

Tue Jul 23, 1:10am EDT

Tue Jul 23, 12:10am EDT

Mon Jul 22, 11:10pm EDT

Mon Jul 22, 10:10pm EDT

Mon Jul 22, 9:10pm EDT

Mon Jul 22, 8:10pm EDT

Mon Jul 22, 7:10pm EDT

Mon Jul 22, 6:10pm EDT

Mon Jul 22, 5:10pm EDT

Mon Jul 22, 4:10pm EDT

Mon Jul 22, 3:10pm EDT

Mon Jul 22, 2:10pm EDT

Mon Jul 22, 1:10pm EDT

Mon Jul 22, 12:10pm EDT

Mon Jul 22, 11:10am EDT

Mon Jul 22, 10:10am EDT

Mon Jul 22, 9:10am EDT

Mon Jul 22, 8:10am EDT

Mon Jul 22, 7:10am EDT

Mon Jul 22, 6:10am EDT

Mon Jul 22, 5:10am EDT

Mon Jul 22, 4:10am EDT

Mon Jul 22, 3:10am EDT

Mon Jul 22, 2:10am EDT

Mon Jul 22, 1:10am EDT

Mon Jul 22, 12:10am EDT

Sun Jul 21, 11:10pm EDT

Sun Jul 21, 10:10pm EDT

Sun Jul 21, 9:10pm EDT

Sun Jul 21, 8:10pm EDT

Sun Jul 21, 7:10pm EDT

Sun Jul 21, 6:10pm EDT

Sun Jul 21, 5:10pm EDT

Sun Jul 21, 4:10pm EDT

Sun Jul 21, 3:10pm EDT

Sun Jul 21, 2:10pm EDT

Sun Jul 21, 1:10pm EDT

Sun Jul 21, 12:10pm EDT

Sun Jul 21, 11:10am EDT

Sun Jul 21, 10:10am EDT

Sun Jul 21, 9:10am EDT

Sun Jul 21, 8:10am EDT

Sun Jul 21, 7:10am EDT

Sun Jul 21, 6:10am EDT

Sun Jul 21, 5:10am EDT

Sun Jul 21, 4:10am EDT

Sun Jul 21, 3:10am EDT

Sun Jul 21, 2:10am EDT

Sun Jul 21, 1:10am EDT

Sun Jul 21, 12:10am EDT

Sat Jul 20, 11:10pm EDT

Sat Jul 20, 10:10pm EDT

Sat Jul 20, 9:10pm EDT

Sat Jul 20, 8:10pm EDT

Sat Jul 20, 7:10pm EDT

Sat Jul 20, 6:10pm EDT

Sat Jul 20, 5:10pm EDT

Sat Jul 20, 4:10pm EDT

Sat Jul 20, 3:10pm EDT

Sat Jul 20, 2:10pm EDT

Sat Jul 20, 1:10pm EDT

Sat Jul 20, 12:10pm EDT

Sat Jul 20, 11:10am EDT

Sat Jul 20, 10:10am EDT

Sat Jul 20, 9:10am EDT

Sat Jul 20, 8:10am EDT

Sat Jul 20, 7:10am EDT

Sat Jul 20, 6:10am EDT

Sat Jul 20, 5:10am EDT

Sat Jul 20, 4:10am EDT

Sat Jul 20, 3:10am EDT

Sat Jul 20, 2:10am EDT

Sat Jul 20, 1:10am EDT

Sat Jul 20, 12:10am EDT

Fri Jul 19, 11:10pm EDT

Fri Jul 19, 9:10pm EDT

Fri Jul 19, 8:10pm EDT

Fri Jul 19, 7:10pm EDT

Fri Jul 19, 6:10pm EDT

Fri Jul 19, 5:10pm EDT

Fri Jul 19, 4:10pm EDT

Fri Jul 19, 3:10pm EDT

Fri Jul 19, 2:10pm EDT

Fri Jul 19, 1:10pm EDT

Fri Jul 19, 12:10pm EDT

Fri Jul 19, 11:10am EDT

Fri Jul 19, 10:10am EDT

Fri Jul 19, 9:10am EDT

Fri Jul 19, 8:10am EDT

Fri Jul 19, 7:10am EDT

Fri Jul 19, 6:10am EDT

Fri Jul 19, 5:10am EDT

Fri Jul 19, 4:10am EDT

Fri Jul 19, 3:10am EDT

Fri Jul 19, 2:10am EDT

Fri Jul 19, 1:10am EDT

Fri Jul 19, 12:10am EDT

Thu Jul 18, 11:10pm EDT

Thu Jul 18, 10:10pm EDT

Thu Jul 18, 9:10pm EDT

Thu Jul 18, 8:10pm EDT

Thu Jul 18, 7:10pm EDT

Thu Jul 18, 6:10pm EDT

Thu Jul 18, 5:10pm EDT

Thu Jul 18, 4:10pm EDT

Thu Jul 18, 3:10pm EDT

Thu Jul 18, 2:10pm EDT

Thu Jul 18, 1:10pm EDT